Regional Weather Roundup
Issued by NWS

Home | Current Version | Previous Version | Graphics & Text | Print | Product List | Glossary On
Versions: 1 2 3 4 5 6 7 8 9 10 11 12 13 14 15 16 17 18 19 20 21 22 23 24 25 26 27 28 29 30 31 32 33 34 35 36 37 38 39 40 41 42 43 44 45 46 47 48 49 50
069
ASUS45 KPSR 271410
RWRAZ

ARIZONA HOURLY REGIONAL WEATHER ROUNDUP
NATIONAL WEATHER SERVICE PHOENIX AZ
700 AM MST MON MAR 27 2017

NOTE: FAIR INDICATES FEW OR NO CLOUDS BELOW 12,000 FEET WITH NO
SIGNIFICANT WEATHER AND/OR OBSTRUCTIONS TO VISIBILITY.

AZZ001>003-036-271500-
NORTHWEST ARIZONA

CITY           SKY/WX    TMP DP  RH WIND       PRES   REMARKS
BULLHEAD CITY  CLEAR     63  36  36 E8        29.82F
KINGMAN        PTCLDY    50  26  39 S12       29.89R
$$

AZZ004>008-015-016-018-271500-
NORTH CENTRAL ARIZONA

CITY           SKY/WX    TMP DP  RH WIND       PRES   REMARKS
GRAND CANYON   CLOUDY    33  30  88 CALM      29.98F
WILLIAMS       MOCLDY    39  25  56 S7        29.99S WCI  34
PRESCOTT       CLOUDY    49  32  52 S5        29.96S
FLAGSTAFF      CLOUDY    35  29  78 CALM      30.01R
PAYSON         CLOUDY    46  28  49 E3        30.03R
PAGE           PTCLDY    48  33  56 CALM      29.89S
$$

AZZ009>014-017-271500-
NORTHEAST ARIZONA

CITY           SKY/WX    TMP DP  RH WIND       PRES   REMARKS
WINSLOW        MOCLDY    40  27  59 SE6       29.98S
SAINT JOHNS    CLEAR     35  20  54 CALM      30.02R
WINDOW ROCK    CLOUDY    30  26  85 CALM      30.03R
SHOW LOW       CLEAR     37  23  56 S8        30.05R WCI  31
$$

AZZ023-271500-
GREATER PHOENIX AREA

CITY           SKY/WX    TMP DP  RH WIND       PRES   REMARKS
PHOENIX        PTCLDY    59  38  45 E9        29.87S
BUCKEYE        CLEAR     52  36  54 NE3       29.88R
GLENDALE       PTCLDY    55  39  54 CALM      29.89S
LUKE AFB       PTCLDY    54  40  59 N3        29.87R
DEER VALLEY    MOCLDY    57  36  45 E7        29.88S
SCOTTSDALE     CLEAR     58  39  49 CALM      29.90R
MESA-FALCON    PTCLDY   N/A N/A N/A N8        29.87R
MESA-GATEWAY   PTCLDY    52  37  58 SE6       29.90R
CHANDLER       CLEAR     55  34  44 NE3       29.89R
$$

AZZ027-028-271500-
SOUTHWEST MARICOPA COUNTY AND PINAL COUNTY

CITY           SKY/WX    TMP DP  RH WIND       PRES   REMARKS
CASA GRANDE    NOT AVBL
GILA BEND      CLEAR     57  31  36 SE8       29.86F
$$

AZZ503-504-507>509-271500-
SOUTHEAST ARIZONA

CITY           SKY/WX    TMP DP  RH WIND       PRES   REMARKS
TUCSON         CLEAR     54  30  40 SE7       29.96R
DAVIS-MONTHAN  CLEAR     54  28  37 SE8       29.95R
RYAN FIELD     CLEAR     50  27  40 CALM      29.96R
NOGALES        CLEAR     47  29  49 NE5       29.99R
SIERRA VISTA   CLEAR     51  29  42 CALM      30.02R
DOUGLAS        CLEAR     47  22  37 E6        30.01R
SAFFORD        CLEAR     46  25  43 CALM      29.96R
$$

AZZ020-021-025-026-031-271500-
SOUTHWEST ARIZONA

CITY           SKY/WX    TMP DP  RH WIND       PRES   REMARKS
YUMA           CLEAR     60  46  59 CALM      29.88R
$$

CAZ031-033-041-043-047-048-061-271500-
SOUTHERN CALIFORNIA

CITY           SKY/WX    TMP DP  RH WIND       PRES   REMARKS
DOWNTOWN L.A.  CLEAR     57  51  80 CALM      30.00F
L.A. AIRPORT   MOCLDY    54  51  90 E6        30.01S
SAN DIEGO      PTCLDY    60  50  69 SW3       30.03S
BURBANK        PTCLDY    51  47  86 CALM      30.00S
ONTARIO        MOCLDY    51  49  92 W6        30.01S
RIVERSIDE      CLOUDY    53  51  93 W5        30.01S
PALM SPRINGS   CLEAR     63  46  54 VRB5      29.85F
EL CENTRO NAS  PTCLDY    62  42  47 W10       29.90R
IMPERIAL       PTCLDY    60  46  59 W10       29.88R
BLYTHE         MOCLDY    60  47  61 CALM      29.85R
NEEDLES        CLEAR     65  40  39 SW6       29.84R
$$

NVZ020-UTZ003-271500-
SOUTHERN NEVADA-UTAH

CITY           SKY/WX    TMP DP  RH WIND       PRES   REMARKS
LAS VEGAS      PTCLDY    58  34  40 SW9       29.78R
SALT LAKE CITY MOCLDY    46  38  73 S6        29.88R
$$

NMZ009-TXZ055-271500-
NEW MEXICO-WEST TEXAS

CITY           SKY/WX    TMP DP  RH WIND       PRES   REMARKS
ALBUQUERQUE    SUNNY     42  27  55 W5        30.02R
EL PASO        MOSUNNY   58  19  22 S9        29.98R
$$


........................KEY........................
SKY/WX - SKY CONDITION/WEATHER
TMP    - TEMPERATURE IN FAHRENHEIT
DP     - DEW POINT IN FAHRENHEIT
RH     - RELATIVE HUMIDITY IN PERCENT
WIND   - DIRECTION AND SPEED IN MILES PER HOUR (MPH)
VRB    - VARIABLE WIND DIRECTION
PRES   - MEAN SEA LEVEL PRESSURE IN INCHES OF MERCURY
         F - FALLING PRESSURE   R - RISING PRESSURE
         S - STEADY PRESSURE
VSB    - VISIBILITY IN MILES
HX     - HEAT INDEX IN FAHRENHEIT
WCI    - WIND CHILL INDEX IN FAHRENHEIT
TC     - TEMPERATURE IN CELSIUS WHICH IS ALSO KNOWN AS
         TEMPERATURE IN CENTIGRADE
AFB    - AIR FORCE BASE
         LUKE AFB IS LUKE AIR FORCE BASE
         DAVIS-MONTHAN IS DAVIS-MONTHAN AIR FORCE BASE
NAS    - NAVAL AIR STATION
         EL CENTRO NAS IS EL CENTRO NAVAL AIR STATION
N/A    - NOT AVAILABLE





USA.gov is the U.S. government's official web portal to all federal, state and local government web resources and services.